Miscellaneous Local Product
Issued by NWS North Platte, NE

Home | Current Version | Previous Version | Graphics & Text | Print | Product List | Glossary On
Versions: 1 2 3 4 5 6 7 8 9 10 11 12 13 14 15 16 17 18 19 20 21 22 23 24 25 26 27 28 29 30 31 32 33 34 35 36 37 38 39 40 41 42 43 44 45 46 47 48 49 50
000
AXUS43 KLBF 020110
MISLBF


WESTERN AND NORTH CENTRAL NEBRASKA HOURLY WEATHER ROUNDUP
NATIONAL WEATHER SERVICE NORTH PLATTE NE
700 PM CST SUN MAR 01 2015

***STATIONS NOT REPORTING VARIABLES SUCH AS SKY/WEATHER OR
PRESSURE ARE PROVIDED BY THE NEBRASKA DEPARTMENT OF
ROADS...RAWS...AND APRS NETWORKS...AND ARE NOT UNDER
NATIONAL WEATHER SERVICE QUALITY CONTROL***

...OBSERVATIONS IN AND NEAR THE EASTERN PANHANDLE OF NEBRASKA...

CITY           SKY/WX    TMP DP  RH WIND       PRES   REMARKS
PINE RIDGE     CLEAR     25   8  48 E8        30.29R WCI  16
CHADRON        PTCLDY    27   9  46 NW6       30.28R WCI  20
ALLIANCE       PTCLDY    28   8  43 NW5       30.25R WCI  23
SIDNEY         CLEAR     27  15  61 CALM      30.25S
WHITECLAY        N/A     28   8  44 NE3         N/A
CRESCENT LAKE    N/A     30   6  37 NW3         N/A
LISCO            N/A     32  10  40 W3          N/A
BIG SPRINGS      N/A     29  12  48 CALM        N/A
LEWELLEN         N/A     22  -2  35 S5          N/A  WCI  15
$$

...OBSERVATIONS IN NORTH CENTRAL NEBRASKA...

CITY           SKY/WX    TMP DP  RH WIND       PRES   REMARKS
VALENTINE      CLEAR     28   7  41 N7        30.33R WCI  21
THEDFORD       CLEAR     28  10  46 NE3       30.31R
AINSWORTH      CLEAR     22   8  53 N8        30.33R WCI  13
O`NEILL        CLEAR     26   6  44 NW8       30.36R WCI  17
ORD            PTCLDY    27   7  42 NW5       30.34R WCI  22
BROKEN BOW     PTCLDY    27   9  46 N7        30.32R WCI  19
BROWNLEE         N/A     25   2  38 N6          N/A  WCI  18
SPRINGVIEW       N/A     28   9  44 CALM        N/A
BREWSTER         N/A     32  15  49 N7          N/A  WCI  26
ROSE             N/A     34  17  49 CALM        N/A
NEWPORT          N/A     32  12  43 W3          N/A
SARGENT          N/A     31  11  43 CALM        N/A
COMSTOCK         N/A     32  12  43 CALM        N/A
CHAMBERS         N/A     25   2  36 CALM        N/A
EWING            N/A     29  11  46 N3          N/A
$$

...OBSERVATIONS IN SOUTHWEST NEBRASKA AND FAR NORTHEAST COLORADO...

CITY           SKY/WX    TMP DP  RH WIND       PRES   REMARKS
WRAY           FAIR      32  16  52 E5        30.28S WCI  28
IMPERIAL         N/A     29  12  49 NE3       30.30R
OGALLALA       CLEAR     25  11  56 N3        30.29S
NORTH PLATTE   CLEAR     27   8  44 N6        30.31R WCI  20
MCCOOK         CLOUDY    35  11  36 N5        30.33R WCI  31
LEXINGTON      PTCLDY    31  10  40 NE5       30.33R WCI  27
PAXTON           N/A     33  15  46 CALM        N/A
BRADY            N/A     33  11  40 CALM        N/A
GOTHENBURG       N/A     34  11  37 CALM        N/A
CALLAWAY         N/A     30  11  45 N6          N/A  WCI  24
$$

...NORTH PLATTE AREA...

CITY           SKY/WX    TMP DP  RH WIND       PRES   REMARKS
AIRPORT        CLEAR     27   8  44 N6        30.31R WCI  20
DOWNTOWN         N/A     33  10  38 CALM        N/A
$$

...SOME WEATHER OBSERVATIONS FROM AROUND THE REGION...

CITY           SKY/WX    TMP DP  RH WIND       PRES   REMARKS
DENVER         MOCLDY    21  15  78 S6        30.22R WCI  13
LARAMIE        MOCLDY    17  13  84 S9        30.08F WCI   6
CHEYENNE       MOCLDY    21  13  71 SW12      30.16R WCI   9
SCOTTSBLUFF    CLEAR     28  10  46 S3        30.25R
RAPID CITY     CLEAR     19   9  65 N8        30.29R WCI   9
PIERRE         MOCLDY    23   8  52 NW9       30.35R WCI  13
WINNER         FAIR      26   3  37 N7        30.35R WCI  18
SIOUX FALLS    CLEAR     22  14  71 NW8       30.37R WCI  12
OMAHA          PTCLDY    31  17  56 N3        30.39R
GRAND ISLAND   MOCLDY    29  12  49 N5        30.37R WCI  24
KANSAS CITY    MOCLDY    29  20  69 CALM      30.41R
WICHITA        PTCLDY    30  19  63 NE6       30.40R WCI  24
HAYS           PTCLDY    28  14  54 SW3       30.37S
LIBERAL        CLOUDY    28  21  74 NE5       30.36R WCI  23
GOODLAND       MOCLDY    31  20  63 E5        30.29R WCI  26
$$



USA.gov is the U.S. government's official web portal to all federal, state and local government web resources and services.